When you browse on this site, cookies collect data to enhance your experience and personalize the content and advertising you see.
Visit our Privacy Policy to learn more. By continuing to use the site, you agree to this use of cookies and data.
  • In United Kingdom
  • List of Countries
  • For 7 days
  • Water Temperature
  • Weather Map
  • Weather Widgets
  • user-avatar
    Login

    Hourly Weather Stuttgart

    Today, 21 August, Wednesday

    Time Temperature Precipitation Wind Pressure Humidity
    00:00 +13°C° 0 mm 1 mps 744 mmHg 91%
    01:00 +13°C° 0 mm 1 mps 744 mmHg 90%
    02:00 +13°C° 0 mm 1 mps 744 mmHg 90%
    03:00 +12°C° 0 mm 1 mps 744 mmHg 90%
    04:00 +12°C° 0 mm 1 mps 744 mmHg 89%
    05:00 +13°C° 0 mm 1 mps 744 mmHg 88%
    06:00 +13°C° 0 mm 1 mps 744 mmHg 86%
    07:00 +13°C° 0 mm 0 mps 744 mmHg 85%
    08:00 +16°C° 0 mm 1 mps 744 mmHg 78%
    09:00 +18°C° 0 mm 1 mps 744 mmHg 71%
    10:00 +19°C° 0 mm 2 mps 744 mmHg 65%
    11:00 +20°C° 0 mm 2 mps 744 mmHg 60%
    12:00 +21°C° 0 mm 2 mps 744 mmHg 55%
    13:00 +22°C° 0 mm 3 mps 744 mmHg 50%
    14:00 +22°C° 0 mm 3 mps 743 mmHg 51%
    15:00 +22°C° 0 mm 3 mps 743 mmHg 53%
    16:00 +22°C° 0 mm 3 mps 743 mmHg 54%
    17:00 +21°C° 0 mm 3 mps 743 mmHg 60%
    18:00 +20°C° 0 mm 3 mps 742 mmHg 66%
    19:00 +18°C° 0 mm 2 mps 742 mmHg 72%
    20:00 +17°C° 0 mm 2 mps 742 mmHg 74%
    21:00 +16°C° 0 mm 2 mps 742 mmHg 76%
    22:00 +15°C° 0 mm 1 mps 742 mmHg 78%
    23:00 +15°C° 0 mm 1 mps 742 mmHg 79%

    Tomorrow, 22 August, Thursday

    Time Temperature Precipitation Wind Pressure Humidity
    00:00 +15°C° 0 mm 1 mps 742 mmHg 81%
    01:00 +14°C° 0 mm 1 mps 742 mmHg 82%
    02:00 +14°C° 0 mm 1 mps 742 mmHg 84%
    03:00 +14°C° 0 mm 1 mps 741 mmHg 87%
    04:00 +14°C° 0 mm 1 mps 741 mmHg 89%
    05:00 +14°C° 0 mm 1 mps 741 mmHg 88%
    06:00 +15°C° 0 mm 1 mps 742 mmHg 87%
    07:00 +15°C° 0 mm 1 mps 742 mmHg 86%
    08:00 +17°C° 0 mm 2 mps 742 mmHg 79%
    09:00 +19°C° 0 mm 3 mps 742 mmHg 73%
    10:00 +21°C° 0 mm 3 mps 742 mmHg 67%
    11:00 +22°C° 0 mm 3 mps 742 mmHg 64%
    12:00 +24°C° 0 mm 3 mps 742 mmHg 61%
    13:00 +25°C° 0 mm 3 mps 741 mmHg 59%
    14:00 +25°C° 0 mm 3 mps 741 mmHg 59%
    15:00 +25°C° 0 mm 3 mps 741 mmHg 59%
    16:00 +25°C° 0 mm 3 mps 741 mmHg 60%
    17:00 +24°C° 0 mm 3 mps 741 mmHg 66%
    18:00 +23°C° 0 mm 2 mps 741 mmHg 71%
    19:00 +20°C° 0 mm 2 mps 741 mmHg 77%
    20:00 +20°C° 0 mm 1 mps 741 mmHg 79%
    21:00 +19°C° 0 mm 1 mps 742 mmHg 82%
    22:00 +18°C° 0 mm 1 mps 742 mmHg 84%
    23:00 +18°C° 0 mm 1 mps 742 mmHg 85%

    Day after tomorrow, 23 August, Friday

    Time Temperature Precipitation Wind Pressure Humidity
    00:00 +16°C° 0 mm 1 mps 742 mmHg 86%
    01:00 +16°C° 0 mm 1 mps 741 mmHg 87%
    02:00 +15°C° 0 mm 1 mps 741 mmHg 88%
    03:00 +15°C° 0 mm 1 mps 741 mmHg 88%
    04:00 +15°C° 0 mm 1 mps 741 mmHg 89%
    05:00 +15°C° 0 mm 1 mps 741 mmHg 87%
    06:00 +16°C° 0 mm 1 mps 741 mmHg 85%
    07:00 +18°C° 0 mm 1 mps 741 mmHg 83%
    08:00 +19°C° 0 mm 1 mps 741 mmHg 77%
    09:00 +21°C° 0 mm 1 mps 741 mmHg 70%
    10:00 +23°C° 0 mm 2 mps 741 mmHg 64%
    11:00 +24°C° 0 mm 2 mps 741 mmHg 60%
    12:00 +26°C° 0 mm 2 mps 741 mmHg 57%
    13:00 +27°C° 0 mm 2 mps 741 mmHg 53%
    14:00 +27°C° 0 mm 3 mps 740 mmHg 54%
    15:00 +27°C° 0 mm 3 mps 740 mmHg 54%
    16:00 +27°C° 0 mm 3 mps 740 mmHg 55%
    17:00 +25°C° 0 mm 2 mps 740 mmHg 61%
    18:00 +24°C° 0 mm 2 mps 740 mmHg 67%
    19:00 +21°C° 0 mm 2 mps 740 mmHg 73%
    20:00 +21°C° 0 mm 1 mps 740 mmHg 75%
    21:00 +20°C° 0 mm 1 mps 740 mmHg 78%
    22:00 +17°C° 0 mm 0 mps 740 mmHg 80%
    23:00 +17°C° 0 mm 0 mps 740 mmHg 82%

    24 August, Saturday

    Time Temperature Precipitation Wind Pressure Humidity
    00:00 +17°C° 0 mm 0 mps 739 mmHg 83%
    01:00 +16°C° 0 mm 0 mps 739 mmHg 84%
    02:00 +16°C° 0 mm 0 mps 739 mmHg 85%
    03:00 +16°C° 0 mm 0 mps 739 mmHg 86%
    04:00 +15°C° 0 mm 0 mps 739 mmHg 87%
    05:00 +16°C° 0 mm 0 mps 739 mmHg 85%
    06:00 +17°C° 0 mm 0 mps 739 mmHg 84%
    07:00 +17°C° 0 mm 0 mps 739 mmHg 82%
    08:00 +19°C° 0 mm 0 mps 739 mmHg 76%
    09:00 +23°C° 0 mm 1 mps 739 mmHg 70%
    10:00 +25°C° 0 mm 1 mps 739 mmHg 64%
    11:00 +27°C° 0 mm 1 mps 739 mmHg 62%
    12:00 +28°C° 0 mm 1 mps 739 mmHg 60%
    13:00 +29°C° 0 mm 1 mps 738 mmHg 57%
    14:00 +29°C° 0 mm 1 mps 738 mmHg 58%
    15:00 +29°C° 0 mm 1 mps 738 mmHg 58%
    16:00 +29°C° 0 mm 2 mps 738 mmHg 58%
    17:00 +27°C° 0 mm 1 mps 738 mmHg 65%
    18:00 +26°C° 0 mm 1 mps 737 mmHg 72%
    19:00 +24°C° 0 mm 1 mps 737 mmHg 79%
    20:00 +23°C° 0 mm 1 mps 737 mmHg 82%
    21:00 +22°C° 0 mm 1 mps 738 mmHg 84%
    22:00 +21°C° 0 mm 1 mps 738 mmHg 87%
    23:00 +21°C° 0 mm 1 mps 738 mmHg 88%

    25 August, Sunday

    Time Temperature Precipitation Wind Pressure Humidity
    00:00 +21°C° 0 mm 1 mps 737 mmHg 88%
    01:00 +20°C° 0 mm 1 mps 737 mmHg 89%
    02:00 +20°C° 0 mm 1 mps 737 mmHg 89%
    03:00 +20°C° 0 mm 1 mps 737 mmHg 90%
    04:00 +20°C° 0 mm 1 mps 737 mmHg 90%
    05:00 +20°C° 0 mm 1 mps 737 mmHg 89%
    06:00 +21°C° 0 mm 1 mps 737 mmHg 87%
    07:00 +21°C° 0 mm 1 mps 738 mmHg 86%
    08:00 +21°C° 0 mm 0 mps 738 mmHg 78%
    09:00 +23°C° 0 mm 0 mps 738 mmHg 71%
    10:00 +26°C° 0 mm 0 mps 738 mmHg 64%
    11:00 +29°C° 0 mm 1 mps 738 mmHg 58%
    12:00 +30°C° 0 mm 1 mps 738 mmHg 53%
    13:00 +31°C° 0 mm 1 mps 738 mmHg 48%
    14:00 +31°C° 0 mm 1 mps 737 mmHg 47%
    15:00 +30°C° 0 mm 1 mps 737 mmHg 47%
    16:00 +30°C° 0 mm 1 mps 737 mmHg 47%
    17:00 +29°C° 0 mm 1 mps 737 mmHg 52%
    18:00 +27°C° 0 mm 1 mps 737 mmHg 58%
    19:00 +25°C° 0 mm 1 mps 737 mmHg 64%
    20:00 +24°C° 0 mm 1 mps 738 mmHg 65%
    21:00 +23°C° 0 mm 1 mps 738 mmHg 67%
    22:00 +22°C° 0 mm 1 mps 738 mmHg 69%
    23:00 +22°C° 0 mm 1 mps 738 mmHg 70%

    26 August, Monday

    Time Temperature Precipitation Wind Pressure Humidity
    00:00 +21°C° 0 mm 1 mps 738 mmHg 72%
    01:00 +21°C° 0 mm 1 mps 738 mmHg 73%
    02:00 +21°C° 0 mm 1 mps 738 mmHg 74%
    03:00 +20°C° 0 mm 1 mps 738 mmHg 75%
    04:00 +20°C° 0 mm 1 mps 738 mmHg 76%
    05:00 +21°C° 0 mm 1 mps 739 mmHg 76%
    06:00 +21°C° 0 mm 1 mps 739 mmHg 76%
    07:00 +22°C° 0 mm 1 mps 739 mmHg 76%
    08:00 +24°C° 0 mm 1 mps 739 mmHg 69%
    09:00 +26°C° 0 mm 1 mps 740 mmHg 62%
    10:00 +28°C° 0 mm 1 mps 740 mmHg 56%
    11:00 +29°C° 0 mm 1 mps 740 mmHg 51%
    12:00 +28°C° 0 mm 0 mps 740 mmHg 47%
    13:00 +29°C° 0 mm 0 mps 740 mmHg 42%
    14:00 +29°C° 0 mm 0 mps 740 mmHg 41%
    15:00 +29°C° 0 mm 0 mps 739 mmHg 41%
    16:00 +31°C° 0 mm 1 mps 739 mmHg 40%
    17:00 +29°C° 0 mm 1 mps 739 mmHg 46%
    18:00 +27°C° 0 mm 1 mps 739 mmHg 53%
    19:00 +26°C° 0 mm 1 mps 739 mmHg 60%
    20:00 +25°C° 0 mm 1 mps 739 mmHg 62%
    21:00 +24°C° 0 mm 1 mps 739 mmHg 63%
    22:00 +23°C° 0 mm 1 mps 739 mmHg 65%
    23:00 +23°C° 0 mm 1 mps 739 mmHg 66%
    Show more